Погода в Монтекатини-Терме

Италия     43°52′51″N   10°46′31″E
темп.,
°C
ветер,
м/с
пор.,
м/с
влажн.,
%
обл.,
%
осадки,
мм/ч
давл.,
гПа
погр.,
м
20 января, ср
ср2001:00+2ю129999 1.3 102470
04:00+2ю1299100 1.4 102269
07:00+2ю1199100 2.5 102257
10:00+2ююв0198100 0.5 102360
13:00+4юз2493100 0.8 1022303
16:00+5зюз1196100 0.4 102038
19:00+4зюз0198100 1.2 102030
22:00+4ююз0198100 0.3 101927
21 января, чт
чт2101:00+5ююз1198100 0.4 101845
04:00+5ююв1198100 0.2 101635
07:00+5юв1198100 0.7 101636
10:00+6ююв1398100 1.2 1016163
13:00+7ю1296100 1.8 1015211
16:00+7ююз1289100 0.1 101399
19:00+6сз019199 0.1 101323
22:00+5ю1296100 0.1 1012122
22 января, пт
пт2201:00+5ю1399100 0.3 1010122
04:00+6ююз21099100 2.0 1006742
07:00+6ююз2999100 5.7 1005596
10:00+7юз51299100 1.4 10051004
13:00+8юз61392100 2.9 10041360
16:00+8ю2798100 1.8 1000556
19:00+8ю311100100 18.7 995895
22:00+6юз51499100 18.1 9921273
23 января, сб
сб2301:00+5ююз61497100 20.4 9911178
04:00+4ю51099100 4.4 988930
07:00+5юз3599100 14.1 988400
10:00+4ююз2498100 3.5 989333
13:00+5зюз1297100 4.9 991227
16:00+5зюз2397100 0.8 991275
19:00+3зюз2691100 1.4 992532
22:00+2ссв338716 0.0 99350
24 января, вс
вс2401:00+1сз12818 0.0 99522
04:00+2с118934 0.0 99622
07:00+2юв118965 0.0 99722
10:00+4вюв1179100 0.0 998179
13:00+6з2368100 0.0 998963
16:00+5ссв3478100 0.1 997332
19:00+1ссв3392100 0.6 99889
22:00+1с3387100 0.1 999117